www.pogodaiklimat.ru

Погода и климат >> Архив погоды >> Италия >> Капо Стартивенто


ПОГОДА на Капо Стартивенто

  • Прогноз погоды на Капо Стартивенто
  • Монитор погоды на Капо Стартивенто

АРХИВ ПОГОДЫ на Капо Стартивенто

Время (UTC), дата Ветер
(напр.,м/с)
 
Видим.   Явления Облачность Т
(С)
Тd
(С)
f
(%)
Тe
(С)
Тes
(С)
Комфортность P
(гПа)
Po
(гПа)
Тmin
(С)
Tmax
(С)
R
(мм)
R24
(мм)
S
(см)
22 16.01 ЮЗ 6 н/о н/о +11.2 +6.5 73 +8 +8 1022.8 1008.2
23 16.01 З 4 н/о н/о +11.0 +5.7 70 +9 +9 1022.7 1008.1
00 17.01 ЮЗ 4 н/о н/о +10.8 +5.9 72 +8 +8 1022.2 1007.6
01 17.01 ЮЗ 5 н/о н/о +10.7 +5.2 69 +8 +8 1022.0 1007.4
02 17.01 СЗ 5 н/о н/о +10.4 +4.7 68 +8 +8 1021.9 1007.3
03 17.01 ЮЗ 5 н/о н/о +10.6 +4.9 68 +8 +8 1021.4 1006.8
04 17.01 ЮВ 4 н/о н/о +10.6 +5.9 73 +8 +8 1020.5 1005.9
05 17.01 СВ 3 н/о н/о +10.3 -1.2 45 +9 +9 1020.6 1006.0
06 17.01 З 3 н/о н/о +10.5 -3.0 39 +9 +9 1020.7 1006.1 +9.9 705
07 17.01 В 4 н/о н/о +10.6 +1.8 54 +8 +8 1020.7 1006.1
08 17.01 ЮЗ 3 н/о н/о +11.4 +3.6 59 +10 +10 1020.9 1006.3
09 17.01 Ю 5 н/о н/о +12.8 +3.1 52 +11 +11 1021.1 1006.6
10 17.01 Ю 6 н/о н/о +13.4 +6.4 63 +11 +11 1021.1 1006.6
11 17.01 СЗ 6 н/о н/о +13.5 +9.7 78 +11 +11 1020.5 1006.0
12 17.01 В 6 н/о н/о +13.7 +10.3 80 +12 +12 1019.7 1005.3
13 17.01 Ю 5 н/о н/о +12.8 +10.3 85 +11 +11 1019.4 1004.9
14 17.01 З 3 н/о н/о +12.9 +10.9 88 +11 +11 1019.1 1004.6
16 17.01 Ю 3 н/о н/о +11.8 +11.8 100 +10 +10 1018.6 1004.1
17 17.01 СЗ 3 н/о н/о +11.6 +11.6 100 +10 +10 1018.6 1004.1
18 17.01 СВ 4 н/о н/о +12.2 +12.2 100 +10 +10 1018.7 1004.2 +14.2 3
19 17.01 З 3 н/о н/о +12.4 +12.4 100 +11 +11 1018.5 1004.0
20 17.01 Ю 4 н/о н/о +12.6 +12.6 100 +11 +11 1018.5 1004.0
22 17.01 СЗ 3 н/о н/о +12.5 +12.5 100 +11 +11 1018.5 1004.0
23 17.01 В 4 н/о н/о +12.6 +12.6 100 +11 +11 1018.0 1003.5
00 18.01 З 4 н/о н/о +12.6 +12.6 100 +11 +11 1017.5 1003.0
01 18.01 СВ 4 н/о н/о +12.8 +12.8 100 +11 +11 1017.3 1002.8
02 18.01 СЗ 5 н/о н/о +12.7 +12.7 100 +10 +10 1016.9 1002.5
04 18.01 СВ 4 н/о н/о +12.2 +11.9 98 +10 +10 1016.0 1001.5
05 18.01 Ю 3 н/о н/о +12.2 +11.3 94 +10 +10 1015.8 1001.3
06 18.01 ЮЗ 3 н/о н/о +12.0 +10.4 90 +10 +10 1016.1 1001.6 +11.9 105
07 18.01 В 3 н/о н/о +12.5 +10.7 89 +11 +11 1016.2 1001.8
08 18.01 СВ 3 н/о н/о +13.3 +11.3 88 +12 +12 1016.3 1001.9
09 18.01 Ю 4 н/о н/о +13.1 +11.8 92 +11 +11 1016.9 1002.5
10 18.01 Ю 4 н/о н/о +13.8 +12.0 89 +12 +12 1016.7 1002.3
11 18.01 Ю 3 н/о н/о +14.4 +12.2 87 +13 +13 1016.0 1001.7
12 18.01 Ю 4 н/о н/о +15.3 +12.9 86 +14 +14 1015.2 1000.9
13 18.01 Ю 5 н/о н/о +15.0 +13.6 91 +14 +14 1014.7 1000.4
14 18.01 Ю 5 н/о н/о +15.0 +12.1 83 +14 +14 1014.5 1000.2
15 18.01 Ю 5 н/о н/о +14.6 +11.5 82 +13 +13 1014.6 1000.3
16 18.01 ЮЗ 3 н/о н/о +13.8 +11.3 85 +13 +13 1015.0 1000.6
17 18.01 ЮЗ 4 н/о н/о +13.1 +11.0 87 +11 +11 1014.8 1000.4
18 18.01 Ю 2 н/о н/о +12.8 +10.3 85 +12 +12 1015.2 1000.8 +15.7
19 18.01 ЮЗ 4 н/о н/о +13.4 +9.8 79 +12 +12 1014.9 1000.5
20 18.01 З 1 н/о н/о +12.8 +8.6 76 +13 +13 1014.8 1000.4
21 18.01 С 1 н/о н/о +13.2 +9.4 78 +13 +13 1014.9 1000.5
22 18.01 СВ 1 н/о н/о +13.2 +10.0 81 +13 +13 1015.3 1000.9
23 18.01 ЮЗ 7 н/о н/о +11.6 +10.3 92 +8 +8 1014.5 1000.1
00 19.01 СЗ 3 н/о н/о +11.4 +8.8 84 +10 +10 1014.4 999.9 3
01 19.01 СЗ 3 н/о н/о +11.4 +9.5 88 +9 +9 1013.9 999.4
02 19.01 СЗ 5 н/о н/о +10.2 +8.1 87 +7 +7 1013.8 999.3
03 19.01 СЗ 6 н/о н/о +11.0 +10.1 94 +8 +8 1013.5 999.0
04 19.01 СЗ 5 н/о н/о +10.8 +8.5 86 +8 +8 1012.8 998.3
05 19.01 СЗ 6 н/о н/о +11.1 +8.1 82 +8 +8 1012.8 998.3
06 19.01 З 2 н/о н/о +11.6 +8.2 80 +11 +11 1013.1 998.7 +9.9 3
07 19.01 З 3 н/о н/о +10.8 +7.6 81 +9 +9 1013.4 998.9
08 19.01 СЗ 1 н/о н/о +12.2 +8.6 79 +12 +12 1013.7 999.3
09 19.01 С 3 н/о н/о +13.2 +9.0 76 +12 +12 1014.0 999.6
10 19.01 С 3 н/о н/о +14.4 +10.4 77 +14 +14 1014.2 999.9
11 19.01 СВ 3 н/о н/о +14.1 +10.1 77 +13 +13 1013.7 999.4
12 19.01 В 2 н/о н/о +15.9 +11.8 77 +16 +16 1012.9 998.7
13 19.01 ЮВ 3 н/о н/о +15.1 +11.1 77 +15 +15 1012.3 998.0
14 19.01 Ю 4 н/о н/о +14.8 +10.8 77 +14 +14 1012.0 997.7
15 19.01 Ю 5 н/о н/о +14.2 +11.1 82 +12 +12 1011.8 997.5
16 19.01 СВ 2 н/о н/о +13.3 +10.6 84 +13 +13 1012.2 997.8
17 19.01 СЗ 2 н/о н/о +12.2 +10.1 87 +12 +12 1012.4 998.0
18 19.01 СЗ 2 н/о н/о +11.9 +10.0 88 +11 +11 1012.7 998.3 +16.5
19 19.01 СЗ 4 н/о н/о +11.9 +9.1 83 +10 +10 1012.7 998.3
20 19.01 СЗ 3 н/о н/о +11.6 +8.6 82 +10 +10 1013.1 998.6
21 19.01 СЗ 2 н/о н/о +11.8 +7.7 76 +11 +11 1013.4 999.0
22 19.01 СЗ 2 н/о н/о +11.5 +7.2 75 +10 +10 1013.7 999.2
23 19.01 З 4 н/о н/о +11.4 +7.1 75 +9 +9 1013.5 999.0
00 20.01 З 3 н/о н/о +11.5 +6.6 72 +10 +10 1013.1 998.6
01 20.01 З 3 н/о н/о +11.7 +6.8 72 +10 +10 1013.0 998.6
02 20.01 З 3 н/о н/о +11.8 +6.9 72 +10 +10 1012.9 998.5
03 20.01 З 3 н/о н/о +11.3 +7.7 78 +10 +10 1012.6 998.1
04 20.01 З 3 н/о н/о +11.0 +8.9 87 +9 +9 1012.5 998.0
05 20.01 СЗ 3 н/о н/о +10.7 +8.8 88 +9 +9 1012.5 998.0
06 20.01 СЗ 3 н/о н/о +10.8 +8.5 86 +9 +9 1012.9 998.4 +10.5 5
07 20.01 СЗ 3 н/о н/о +10.9 +8.8 87 +9 +9 1013.1 998.6
08 20.01 СЗ 3 н/о н/о +12.2 +9.7 85 +11 +11 1013.5 999.1
09 20.01 СЗ 4 н/о н/о +12.7 +10.0 84 +11 +11 1013.7 999.3
10 20.01 С 5 н/о н/о +13.7 +10.7 82 +12 +12 1013.8 999.4
11 20.01 С 4 н/о н/о +13.9 +10.5 80 +12 +12 1013.3 999.0
12 20.01 С 4 н/о н/о +14.1 +11.0 82 +13 +13 1012.7 998.4
13 20.01 С 4 н/о н/о +14.7 +11.4 81 +14 +14 1012.1 997.8
14 20.01 СВ 3 н/о н/о +14.7 +11.3 80 +14 +14 1011.9 997.6
15 20.01 С 3 н/о н/о +14.2 +10.6 79 +13 +13 1012.1 997.8
16 20.01 СЗ 3 н/о н/о +12.7 +9.7 82 +11 +11 1012.3 997.9
17 20.01 З 3 н/о н/о +11.7 +9.9 89 +10 +10 1012.7 998.3
18 20.01 З 3 н/о н/о +11.8 +10.4 91 +10 +10 1013.0 998.6 +15.5
19 20.01 З 2 н/о н/о +11.9 +10.0 88 +11 +11 1013.2 998.8
20 20.01 СЗ 2 н/о н/о +11.7 +9.8 88 +11 +11 1013.2 998.8
21 20.01 З 3 н/о н/о +11.4 +9.5 88 +9 +9 1013.6 999.1
22 20.01 З 2 н/о н/о +11.3 +9.0 86 +10 +10 1013.8 999.3
23 20.01 З 2 н/о н/о +11.2 +9.3 88 +10 +10 1013.9 999.4
00 21.01 З 2 н/о н/о +11.2 +9.3 88 +10 +10 1013.6 999.1
01 21.01 СЗ 2 н/о н/о +11.0 +9.4 90 +10 +10 1013.7 999.2
02 21.01 СЗ 2 н/о н/о +10.6 +8.8 89 +9 +9 1013.7 999.2
03 21.01 СЗ 2 н/о н/о +10.8 +8.9 88 +10 +10 1013.3 998.8
04 21.01 СЗ 2 н/о н/о +10.8 +8.9 88 +10 +10 1012.9 998.4
05 21.01 СЗ 3 н/о н/о +11.0 +8.9 87 +9 +9 1013.0 998.5
06 21.01 СЗ 2 н/о н/о +10.8 +9.0 89 +9 +9 1013.4 998.9 +10.4 205
07 21.01 СЗ 3 н/о н/о +10.8 +9.9 94 +9 +9 1013.5 999.0
08 21.01 СЗ 2 н/о н/о +11.5 +11.3 99 +10 +10 1013.6 999.1
09 21.01 СЗ 2 н/о н/о +12.2 +11.6 96 +11 +11 1013.8 999.4
10 21.01 В 1 н/о н/о +14.3 +11.6 84 +15 +15 1013.6 999.3
11 21.01 Ю 2 н/о н/о +14.9 +11.8 82 +15 +15 1012.8 998.5
12 21.01 Ю 2 н/о н/о +15.0 +11.0 77 +15 +15 1012.1 997.8
13 21.01 ЮВ 1 н/о н/о +14.0 +10.8 81 +14 +14 1011.4 997.1
14 21.01 В 1 н/о н/о +14.0 +11.5 85 +14 +14 1011.1 996.8
15 21.01 З 3 н/о н/о +11.7 +11.7 100 +10 +10 1010.9 996.5
16 21.01 Ю 2 н/о н/о +11.9 +11.9 100 +11 +11 1010.8 996.4
17 21.01 З 1 н/о н/о +11.7 +11.7 100 +12 +12 1011.0 996.6
18 21.01 СЗ 3 н/о н/о +11.8 +11.8 100 +10 +10 1010.4 996.0 +16.5 0.6
19 21.01 СЗ 3 н/о н/о +11.3 +11.3 100 +10 +10 1010.7 996.3
20 21.01 СЗ 3 н/о н/о +11.7 +11.7 100 +10 +10 1010.4 996.0
21 21.01 ЮВ 1 н/о н/о +12.7 +12.7 100 +13 +13 1009.8 995.5
22 21.01 С 3 н/о н/о +11.7 +11.7 100 +10 +10 1009.9 995.5
23 21.01 С 3 н/о н/о +12.0 +12.0 100 +10 +10 1009.6 995.2
00 22.01 С 3 н/о н/о +12.5 +12.5 100 +11 +11 1009.0 994.7 3

 

Местоположение метеостанции Капо Стартивенто (Италия): широта 37.93 долгота 16.05 высота над уровнем моря 117 м.

В архиве по умолчанию представлена погода на Капо Стартивенто за последнюю неделю. Архивные данные за месяц целиком и за предыдущие месяцы, начиная с января 2011 года, Вы можете получить, выбрав интересующий диапазон дат из раскрывающегося списка и нажав кнопку "Ввод!".


*Определитесь, кто Вы:
робот инопланетянин человек

Внимание! Время в таблицах - всемирное. Для получения местного времени необходимо прибавить поправку, которая равна 1 ч.

Смотрите также архив погоды в соседних городах и на ближайших метеорологических станциях:

Погода в Мессине (Италия) (53 км)
Погода в Аэропорту Фонтанаросса (Италия) (102 км)
Погода в Ламеция-Терме (Италия) (109 км)
Погода в Серральта-ди-сан-Вито (Италия) (111 км)
Погода в Катании (Италия) (116 км)
Погода в Сиракузах (Италия) (117 км)
Погода в Катандзаро (Италия) (118 км)
Погода на Острове Салина (Италия) (126 км)
Погода на Монте Скеро (Италия) (159 км)
Погода в Энне (Италия) (161 км)

Пояснения к столбцам:

Ветер - указаны скорость ветра в м/с - средняя за 10 мин, порывы в срок и между сроками (в фигурных скобках) и направление, откуда дует ветер: С - северный, СВ - северо-восточный, В - восточный, ЮВ - юго-восточный, Ю - южный, ЮЗ - юго-западный, З - западный, СЗ - северо-западный.
Видимость - горизонтальная дальность видимости в метрах или километрах. При видимости от 1 до 10 км при отсутствии осадков обычно наблюдается дымка, при ухудшении видимости до 1 км и менее - туман. В сухую погоду видимость может ухудшаться дымом, пылью или мглою.
Явления - указаны атмосферные явления, наблюдавшиеся в срок или в последний час перед сроком; фигурными скобками обозначены явления, наблюдавшиеся между сроками (за 1-3 часа до срока); квадратными скобками обозначены град или гололедные отложения с указанием их диаметра в мм.
Облачность - указаны через наклонную черту общая и нижняя облачность в баллах и высота нижней границы облаков в метрах; квадратными скобками обозначены формы облаков: Ci - перистые, Cs - перисто-слоистые, Cc - перисто-кучевые, Ac - высококучевые, As - высокослоистые, Sc - слоисто-кучевые, Ns - слоисто-дождевые, Cu - кучевые, Cb - кучево-дождевые. Подробнее классификацию облаков см. в Атласе облаков (PDF).
T - Температура воздуха - температура, измеренная на высоте 2 м над землей.
Td - Температура точки росы - температура, при понижении до которой содержащийся в воздухе водяной пар достигнет насыщения.
f - Относительная влажность воздуха - влажноcть воздуха, измеренная на высоте 2 м над землей.
Te - Эффективная температура - температура, которую ощущает одетый по сезону человек в тени. Характеристика душности погоды. При расчете учитывается влияние влажности воздуха и скорости ветра на теплоощущения человека.
Tes - Эффективная температура на солнце - температура, которую ощущает человек, с поправкой на солнечный нагрев. Характеристика знойности погоды. Зависит от высоты солнца над горизонтом, облачности и скорости ветра. Ночью, в пасмурную погоду, а также при ветре 12 м/с и более поправка равна нулю.
P - Атмосферное давление - приведенное к уровню моря атмосферное давление.
Po - Атмосферное давление - измеренное на уровне метеостанции атмосферное давление.
Tmin - Минимальная температура - минимум температуры воздуха на высоте 2 м над землей.
Tmax - Максимальная температура - максимум температуры воздуха на высоте 2 м над землей.
R - Количество осадков - Количество выпавших осадков за период времени, мм. При наведении курсора мыши на число - период времени, за который выпало указанное количество осадков.
R24 - Количество осадков - Количество выпавших осадков за 24 часа, мм.
S - Снежный покров - Высота снежного покрова, см. При наведении курсора мыши на число - состояние снежного покрова и степень покрытия местности в баллах.